Liberal, KS

5:11 AM CDT on August 25, 2016 (GMT -0500)
Liberal Municipal

Weather History for KLBL - June, 2013

Change the Weather History Date:

Friday, June 14, 2013

  Actual Average Record
Temperature  
Mean Temperature 82 °F -  
Max Temperature 98 °F 90 °F 107 °F (1953)
Min Temperature 66 °F 62 °F 42 °F (1947)
Cooling Degree Days 17    
Growing Degree Days 32 (Base 50)    
Moisture  
Dew Point 54 °F    
Average Humidity 38    
Maximum Humidity 68    
Minimum Humidity 19    
Precipitation  
Precipitation 0.00 in - - ()
Sea Level Pressure  
Sea Level Pressure 29.98 in    
Wind  
Wind Speed 17 mph (South)    
Max Wind Speed 37 mph    
Max Gust Speed 46 mph    
Visibility 10 miles    
Events      
Averages and records for this station are not official NWS values.
T = Trace of Precipitation, MM = Missing Value Source: NWS Daily Summary

Daily Weather History Graph

Daily Weather History Graph

Search for Another Location

Airport or City:

Trip Planner

Search our weather history database for the weather conditions in past years. The results will help you decide how hot, cold, wet, or windy it might be!

Date:

Astronomy

Jun. 14, 2013 Rise Set
Actual Time 6:23 AM CDT 9:05 PM CDT
Civil Twilight 5:52 AM CDT 9:35 PM CDT
Nautical Twilight 5:14 AM CDT 10:14 PM CDT
Astronomical Twilight 4:31 AM CDT 10:57 PM CDT
Moon 11:53 AM CDT (6/14) 12:18 AM CDT (6/14)
Length of Visible Light 15h 43m
Length of Day
14h 41m
Waxing Crescent, 30% of the Moon is Illuminated
Jun 14
Waxing Crescent
Jun 16
First Quarter
Jun 23
Full
Jun 29
Last Quarter
Jul 8
New

Hourly Weather History & Observations

Time (CDT) Temp. Heat Index Dew Point Humidity Pressure Visibility Wind Dir Wind Speed Gust Speed Precip Events Conditions
12:15 AM 80.6 °F 80.5 °F 55.4 °F 42% 30.01 in 10.0 mi ESE 13.8 mph - N/A   Clear
12:35 AM 80.6 °F 80.5 °F 55.4 °F 42% 30.01 in 10.0 mi East 12.7 mph - N/A   Clear
12:55 AM 78.8 °F - 55.4 °F 44% 30.01 in 10.0 mi ESE 13.8 mph - N/A   Clear
1:15 AM 78.8 °F - 55.4 °F 44% 30.01 in 10.0 mi ESE 11.5 mph - N/A   Clear
1:35 AM 77.0 °F - 55.4 °F 47% 30.01 in 10.0 mi SE 10.4 mph - N/A   Clear
1:55 AM 75.2 °F - 55.4 °F 50% 30.00 in 10.0 mi ESE 10.4 mph - N/A   Clear
2:15 AM 75.2 °F - 55.4 °F 50% 30.00 in 10.0 mi ESE 13.8 mph - N/A   Clear
2:35 AM 77.0 °F - 57.2 °F 50% 30.00 in 10.0 mi ESE 13.8 mph - N/A   Clear
2:55 AM 75.2 °F - 55.4 °F 50% 29.99 in 10.0 mi ESE 15.0 mph - N/A   Clear
3:15 AM 75.2 °F - 55.4 °F 50% 29.99 in 10.0 mi SE 12.7 mph - N/A   Clear
3:35 AM 73.4 °F - 55.4 °F 53% 29.99 in 10.0 mi ESE 12.7 mph - N/A   Clear
3:55 AM 73.4 °F - 55.4 °F 53% 29.99 in 10.0 mi SE 10.4 mph - N/A   Clear
4:15 AM 73.4 °F - 55.4 °F 53% 29.99 in 10.0 mi ESE 11.5 mph - N/A   Clear
4:35 AM 71.6 °F - 55.4 °F 57% 29.99 in 10.0 mi SE 10.4 mph - N/A   Clear
4:55 AM 71.6 °F - 55.4 °F 57% 29.98 in 10.0 mi SE 10.4 mph - N/A   Clear
5:15 AM 71.6 °F - 55.4 °F 57% 29.98 in 10.0 mi ESE 10.4 mph - N/A   Clear
5:35 AM 69.8 °F - 55.4 °F 60% 29.98 in 10.0 mi SE 9.2 mph - N/A   Clear
5:55 AM 69.8 °F - 55.4 °F 60% 29.99 in 10.0 mi SSE 9.2 mph - N/A   Clear
6:15 AM 66.2 °F - 55.4 °F 68% 29.99 in 10.0 mi South 10.4 mph - N/A   Clear
6:35 AM 68.0 °F - 55.4 °F 64% 29.99 in 10.0 mi SSE 10.4 mph - N/A   Clear
6:55 AM 69.8 °F - 55.4 °F 60% 29.99 in 10.0 mi SSW 6.9 mph - N/A   Clear
7:15 AM 71.6 °F - 57.2 °F 60% 30.00 in 10.0 mi South 11.5 mph - N/A   Clear
7:35 AM 73.4 °F - 57.2 °F 57% 30.00 in 10.0 mi South 12.7 mph - N/A   Clear
7:55 AM 75.2 °F - 59.0 °F 57% 30.00 in 10.0 mi SSW 15.0 mph - N/A   Clear
8:15 AM 77.0 °F - 60.8 °F 57% 30.01 in 10.0 mi SSW 16.1 mph - N/A   Clear
8:35 AM 78.8 °F - 60.8 °F 54% 30.01 in 10.0 mi SW 17.3 mph 21.9 mph N/A   Clear
8:55 AM 80.6 °F 81.5 °F 60.8 °F 51% 30.01 in 10.0 mi SSW 16.1 mph 23.0 mph N/A   Clear
9:15 AM 82.4 °F 82.9 °F 60.8 °F 48% 30.01 in 10.0 mi SW 18.4 mph 24.2 mph N/A   Clear
9:35 AM 84.2 °F 84.4 °F 60.8 °F 45% 30.01 in 10.0 mi SW 23.0 mph 26.5 mph N/A   Clear
9:55 AM 84.2 °F 84.4 °F 60.8 °F 45% 30.02 in 10.0 mi SW 21.9 mph - N/A   Clear
10:15 AM 86.0 °F 86.1 °F 60.8 °F 43% 30.02 in 10.0 mi SSW 18.4 mph 26.5 mph N/A   Clear
10:35 AM 87.8 °F 87.1 °F 59.0 °F 38% 30.01 in 10.0 mi South 19.6 mph 29.9 mph N/A   Clear
10:55 AM 89.6 °F 88.9 °F 59.0 °F 36% 30.00 in 10.0 mi SSW 18.4 mph 27.6 mph N/A   Clear
11:15 AM 91.4 °F 89.9 °F 57.2 °F 31% 29.99 in 10.0 mi South 23.0 mph 31.1 mph N/A   Clear
11:35 AM 91.4 °F 89.9 °F 57.2 °F 31% 29.99 in 10.0 mi South 27.6 mph 32.2 mph N/A   Clear
11:55 AM 93.2 °F 91.9 °F 57.2 °F 30% 29.98 in 10.0 mi SSW 25.3 mph 31.1 mph N/A   Clear
12:15 PM 93.2 °F 91.3 °F 55.4 °F 28% 29.98 in 10.0 mi South 28.8 mph 34.5 mph N/A   Clear
12:35 PM 93.2 °F 90.8 °F 53.6 °F 26% 29.98 in 10.0 mi SSW 26.5 mph 35.7 mph N/A   Clear
12:55 PM 93.2 °F 90.8 °F 53.6 °F 26% 29.97 in 10.0 mi South 26.5 mph 33.4 mph N/A   Clear
1:15 PM 96.8 °F - 51.8 °F 22% 29.97 in 10.0 mi South 23.0 mph 31.1 mph N/A   Clear
1:35 PM 95.0 °F - 51.8 °F 23% 29.97 in 10.0 mi South 25.3 mph 31.1 mph N/A   Clear
1:55 PM 96.8 °F 94.4 °F 53.6 °F 23% 29.96 in 10.0 mi South 29.9 mph 38.0 mph N/A   Clear
2:15 PM 96.8 °F 94.4 °F 53.6 °F 23% 29.96 in 10.0 mi South 26.5 mph 35.7 mph N/A   Clear
2:35 PM 96.8 °F 94.4 °F 53.6 °F 23% 29.95 in 10.0 mi South 28.8 mph 34.5 mph N/A   Clear
2:55 PM 96.8 °F 94.4 °F 53.6 °F 23% 29.94 in 10.0 mi SSW 21.9 mph 36.8 mph N/A   Clear
3:15 PM 96.8 °F 94.4 °F 53.6 °F 23% 29.94 in 10.0 mi South 27.6 mph 38.0 mph N/A   Clear
3:35 PM 98.6 °F 96.4 °F 53.6 °F 22% 29.93 in 10.0 mi SSW 26.5 mph 34.5 mph N/A   Clear
3:55 PM 96.8 °F 94.4 °F 53.6 °F 23% 29.92 in 10.0 mi South 28.8 mph 36.8 mph N/A   Clear
4:15 PM 96.8 °F 94.4 °F 53.6 °F 23% 29.91 in 10.0 mi South 21.9 mph 39.1 mph N/A   Clear
4:35 PM 96.8 °F - 51.8 °F 22% 29.90 in 10.0 mi SSW 26.5 mph 36.8 mph N/A   Clear
4:55 PM 98.6 °F - 50.0 °F 19% 29.89 in 10.0 mi South 21.9 mph 33.4 mph N/A   Clear
5:15 PM 96.8 °F - 48.2 °F 19% 29.89 in 10.0 mi SSW 23.0 mph 34.5 mph N/A   Clear
5:35 PM 96.8 °F - 48.2 °F 19% 29.89 in 10.0 mi South 25.3 mph 31.1 mph N/A   Clear
5:55 PM 93.2 °F - 51.8 °F 24% 29.91 in 8.0 mi South 33.4 mph 46.0 mph N/A   Clear
6:15 PM 93.2 °F - 51.8 °F 24% 29.92 in 10.0 mi South 36.8 mph 44.9 mph N/A   Clear
6:35 PM 91.4 °F - 48.2 °F 23% 29.93 in 10.0 mi South 26.5 mph 41.4 mph N/A   Clear
6:55 PM 91.4 °F - 46.4 °F 21% 29.94 in 10.0 mi SSW 29.9 mph 38.0 mph N/A   Clear
7:15 PM 91.4 °F - 48.2 °F 23% 29.94 in 10.0 mi South 28.8 mph 35.7 mph N/A   Clear
7:35 PM 89.6 °F - 48.2 °F 24% 29.94 in 10.0 mi SSW 24.2 mph 29.9 mph N/A   Clear
7:55 PM 87.8 °F - 46.4 °F 24% 29.95 in 10.0 mi SSW 25.3 mph 29.9 mph N/A   Clear
8:15 PM 87.8 °F - 46.4 °F 24% 29.96 in 10.0 mi South 26.5 mph 34.5 mph N/A   Clear
8:35 PM 84.2 °F - 50.0 °F 30% 29.97 in 10.0 mi South 19.6 mph - N/A   Clear
8:55 PM 84.2 °F - 48.2 °F 29% 29.97 in 10.0 mi South 16.1 mph - N/A   Clear
9:15 PM 82.4 °F - 46.4 °F 28% 29.98 in 10.0 mi South 21.9 mph 33.4 mph N/A   Clear
9:35 PM 82.4 °F - 46.4 °F 28% 29.99 in 10.0 mi South 25.3 mph 31.1 mph N/A   Clear
9:55 PM 80.6 °F - 48.2 °F 32% 29.99 in 10.0 mi South 18.4 mph 25.3 mph N/A   Clear
10:15 PM 80.6 °F - 50.0 °F 34% 29.99 in 10.0 mi South 18.4 mph 23.0 mph N/A   Clear
10:35 PM 78.8 °F - 51.8 °F 39% 29.99 in 10.0 mi SSE 15.0 mph - N/A   Clear
10:55 PM 78.8 °F - 51.8 °F 39% 30.00 in 10.0 mi South 21.9 mph 25.3 mph N/A   Partly Cloudy
11:15 PM 78.8 °F - 53.6 °F 42% 30.01 in 10.0 mi SE 17.3 mph - N/A   Partly Cloudy
11:35 PM 77.0 °F - 53.6 °F 44% 30.01 in 10.0 mi SSE 26.5 mph 32.2 mph N/A   Clear
11:55 PM 73.4 °F - 53.6 °F 50% 30.00 in 10.0 mi SE 26.5 mph 33.4 mph N/A   Clear